[[{"header":{"parameterUnit":"m.s-1","parameterCategory":1,"la1":30.2991,"la2":30.254,"lo1":-89.0895,"lo2":-89.0444,"dy":0.0017,"dx":0.0017,"nx":28,"ny":28,"refTime":"2023-09-05T21:00:00:Z","depth":0,"parameterNumber":2,"parameterNumberName":"U-component_of_WINDS"},"data":[0,0,0,0,0,0,0,0,0,0,0,0,0,0,0,0,0,0,0,0,0,0,0,0,0,0,0,0,0,0,0,0,0,0,0,0,0,0,0,0,0,0,0,0,0,0,0,0,0,0,0,0,0,0,0,0,0,0,-0.6667,-0.6667,0,-0.6582,-0.6581,-0.658,-0.6493,-0.6492,-0.6491,-0.649,-0.6406,-0.6404,-0.6403,0,0,0,0,0,0,0,0,0,0,0,0,0,-0.6757,-0.6756,-0.6668,-0.6666,-0.6665,-0.6582,-0.6581,-0.658,-0.6493,-0.6492,-0.649,-0.6489,-0.6406,-0.6405,-0.6403,0,0,0,0,0,0,0,0,0,0,0,0,0,-0.6699,-0.6755,-0.6668,-0.6612,-0.6606,-0.6582,-0.6581,-0.6579,-0.6494,-0.6492,-0.649,-0.6488,-0.6406,-0.6405,-0.6403,-0.6428,0,0,-0.6398,-0.6397,0,0,0,0,0,0,0,0,-0.6703,-0.6696,-0.6621,-0.6616,-0.6609,-0.6546,-0.6581,-0.6529,-0.6494,-0.6536,-0.6489,-0.6487,-0.6454,-0.6448,-0.6436,-0.6424,-0.642,-0.6398,-0.6397,-0.6396,-0.6395,0,0,0,0,0,0,0,-0.6707,-0.6699,-0.6634,-0.662,-0.6613,-0.6592,-0.6581,-0.6571,-0.6506,-0.6533,-0.6526,-0.6517,-0.645,-0.6438,-0.6434,-0.6419,-0.6398,-0.6396,-0.6395,-0.6394,-0.6421,-0.6422,0,0,0,0,0,0,-0.6719,-0.6703,-0.6636,-0.6631,-0.6653,-0.6591,-0.658,-0.6568,-0.6506,-0.6495,-0.6519,-0.6513,-0.6442,-0.6436,-0.643,-0.6454,-0.6396,-0.6394,-0.6393,-0.6419,-0.6421,-0.6423,0,0,0,0,0,0,-0.6721,-0.6714,-0.664,-0.6665,-0.6654,-0.6592,-0.6579,-0.6568,-0.6555,-0.6495,-0.6484,-0.6518,-0.644,-0.6433,-0.6428,-0.645,-0.6394,-0.6392,-0.6417,-0.6419,-0.6422,-0.6503,0,0,0,0,0,0,-0.6724,-0.6715,-0.6724,-0.6666,-0.6653,-0.6639,-0.6581,-0.6567,-0.6552,-0.6544,-0.6492,-0.6481,-0.6438,-0.6431,-0.6427,-0.6446,-0.6391,-0.6415,-0.6418,-0.6421,-0.6498,-0.6508,-0.6516,0,0,0,0,0,-0.6728,-0.6752,-0.6725,-0.6718,-0.6663,-0.6641,-0.6633,-0.6582,-0.6554,-0.6562,-0.6523,-0.6483,-0.6448,-0.6432,-0.6426,-0.6445,-0.6413,-0.6417,-0.6421,-0.6494,-0.6506,-0.6516,0,0,0,0,0,0,-0.6816,-0.6743,-0.6713,-0.6719,-0.6686,-0.6626,-0.6635,-0.6597,-0.6573,-0.6567,-0.6505,-0.6494,-0.6497,-0.647,-0.6453,-0.6465,-0.6425,-0.6428,-0.6482,-0.6493,-0.6502,-0.6509,-0.6389,0,0,0,0,0,-0.6836,-0.6823,-0.676,-0.6772,-0.6757,-0.6699,-0.6687,-0.665,-0.6615,-0.6601,-0.6562,-0.653,-0.6511,-0.6501,-0.648,-0.6493,-0.648,-0.6503,-0.6513,-0.652,-0.6524,-0.6527,-0.6536,-0.6435,-0.6435,-0.6435,0,0,-0.6877,-0.6836,-0.6832,-0.6788,-0.6759,-0.6747,-0.6688,-0.6679,-0.667,-0.66,-0.6593,-0.6563,-0.6523,-0.6527,-0.6526,-0.6505,-0.6548,-0.6525,-0.6532,-0.6531,-0.6532,-0.6541,-0.655,-0.6438,-0.6438,-0.6437,0,0,-0.6947,-0.6914,-0.6919,-0.689,-0.6845,-0.6806,-0.6807,-0.6752,-0.6729,-0.672,-0.6667,-0.6655,-0.6625,-0.6598,-0.658,-0.6636,-0.6597,-0.6631,-0.6679,-0.6683,-0.669,-0.6697,-0.6716,-0.6724,-0.6634,-0.6634,-0.6635,0,-0.7004,-0.6984,-0.6927,-0.692,-0.6901,-0.6835,-0.6839,-0.6814,-0.6766,-0.6755,-0.6731,-0.6689,-0.6658,-0.6654,-0.6667,-0.6655,-0.6654,-0.6637,-0.6694,-0.67,-0.6705,-0.6723,-0.673,-0.6639,-0.6638,-0.6638,-0.6637,0,-0.7056,-0.7043,-0.7052,-0.7005,-0.6987,-0.6986,-0.6928,-0.6918,-0.6881,-0.6845,-0.6836,-0.6795,-0.6764,-0.676,-0.6726,-0.6751,-0.6738,-0.6705,-0.6663,-0.672,-0.6736,-0.6742,-0.6645,-0.6643,-0.6642,-0.6641,0,0,-0.7181,-0.71,-0.7104,-0.7081,-0.7025,-0.7014,-0.7009,-0.6977,-0.6968,-0.6937,-0.6931,-0.6905,-0.6872,-0.6853,-0.6814,-0.6817,-0.6862,-0.6783,-0.6781,-0.6799,-0.6885,-0.6911,-0.6919,-0.6836,-0.6837,-0.6837,-0.6888,0,-0.7241,-0.7227,-0.7174,-0.7176,-0.7162,-0.7098,-0.7093,-0.7059,-0.7024,-0.7007,-0.6968,-0.695,-0.691,-0.6897,-0.6897,-0.6857,-0.6879,-0.6852,-0.683,-0.683,-0.6842,-0.6927,-0.6955,-0.7005,-0.6894,-0.6895,-0.6896,0,-0.731,-0.728,-0.728,-0.7222,-0.7214,-0.7211,-0.7176,-0.7161,-0.712,-0.7094,-0.707,-0.7026,-0.7016,-0.6977,-0.6963,-0.6946,-0.6933,-0.6912,-0.6913,-0.6909,-0.6867,-0.6926,-0.702,-0.7028,-0.6905,-0.6904,-0.6903,0,-0.74,-0.736,-0.7354,-0.7336,-0.7269,-0.7268,-0.724,-0.7196,-0.718,-0.715,-0.7138,-0.7108,-0.7091,-0.7069,-0.7018,-0.6994,-0.7009,-0.6966,-0.6988,-0.6989,-0.6995,-0.6995,-0.7088,-0.6987,-0.6986,-0.6986,-0.6986,0,-0.7472,-0.7475,-0.7393,-0.739,-0.739,-0.7329,-0.7331,-0.7297,-0.7258,-0.7247,-0.719,-0.7181,-0.7113,-0.7096,-0.7056,-0.705,-0.7043,-0.7022,-0.7012,-0.7027,-0.703,-0.7019,-0.7014,-0.6988,-0.6988,-0.6987,-0.6987,0,-0.7574,-0.7519,-0.7509,-0.7445,-0.7428,-0.7432,-0.7377,-0.7371,-0.7331,-0.7317,-0.731,-0.7248,-0.7225,-0.7171,-0.7134,-0.7107,-0.7111,-0.7092,-0.7125,-0.7118,-0.7142,-0.7141,-0.7231,-0.7239,-0.7134,-0.7135,-0.7136,0,-0.7624,-0.7624,-0.7559,-0.7546,-0.752,-0.7501,-0.7483,-0.7422,-0.7405,-0.7356,-0.7356,-0.7328,-0.7302,-0.7268,-0.722,-0.719,-0.717,-0.7203,-0.7165,-0.718,-0.717,-0.717,-0.717,-0.7212,-0.7214,-0.7215,-0.7216,0,-0.7718,-0.769,-0.7666,-0.7632,-0.7611,-0.7581,-0.7549,-0.7542,-0.7472,-0.7457,-0.7431,-0.7411,-0.7371,-0.7343,-0.7306,-0.7278,-0.7236,-0.7228,-0.7231,-0.7248,-0.7266,-0.7256,-0.7148,-0.7227,-0.7226,-0.7225,-0.7224,-0.7224,-0.7795,-0.7791,-0.7744,-0.7718,-0.7686,-0.7656,-0.7647,-0.7604,-0.7582,-0.7543,-0.7508,-0.7486,-0.7442,-0.7388,-0.7361,-0.7343,-0.7322,-0.7327,-0.7328,-0.733,-0.7337,-0.7269,-0.7336,-0.7336,-0.7335,-0.7335,-0.7335,0,-0.7886,-0.7851,-0.7828,-0.7783,-0.7762,-0.7721,-0.7682,-0.7668,-0.7648,-0.761,-0.7585,-0.7555,-0.7527,-0.7475,-0.7443,-0.7438,-0.7418,-0.7432,-0.7432,-0.7425,-0.7358,-0.7358,-0.7448,-0.7448,-0.7448,-0.7448,-0.7448,-0.7448,-0.7931,-0.7921,-0.7888,-0.7861,-0.7827,-0.7803,-0.7784,-0.7755,-0.7725,-0.7693,-0.7668,-0.7634,-0.7591,-0.7554,-0.7526,-0.7512,-0.7503,-0.7523,-0.7502,-0.7441,-0.743,-0.742,-0.742,-0.7521,-0.7522,-0.7571,-0.7571,-0.7572]},{"header":{"parameterUnit":"m.s-1","parameterCategory":1,"la1":30.2991,"la2":30.254,"lo1":-89.0895,"lo2":-89.0444,"dy":0.0017,"dx":0.0017,"nx":28,"ny":28,"refTime":"2023-09-05T21:00:00:Z","depth":0,"parameterNumber":3,"parameterNumberName":"V-component_of_WINDS"},"data":[0,0,0,0,0,0,0,0,0,0,0,0,0,0,0,0,0,0,0,0,0,0,0,0,0,0,0,0,0,0,0,0,0,0,0,0,0,0,0,0,0,0,0,0,0,0,0,0,0,0,0,0,0,0,0,0,0,0,-2.7667,-2.7667,0,-2.7642,-2.7641,-2.7641,-2.7652,-2.7653,-2.7653,-2.7654,-2.7621,-2.7619,-2.7618,0,0,0,0,0,0,0,0,0,0,0,0,0,-2.7714,-2.7714,-2.7667,-2.7667,-2.7666,-2.7642,-2.7641,-2.7641,-2.7652,-2.7653,-2.7653,-2.7654,-2.7621,-2.7619,-2.7618,0,0,0,0,0,0,0,0,0,0,0,0,0,-2.7692,-2.7713,-2.7667,-2.7669,-2.7669,-2.7642,-2.7641,-2.7641,-2.7652,-2.7653,-2.7654,-2.7654,-2.7622,-2.762,-2.7617,-2.7585,0,0,-2.7611,-2.761,0,0,0,0,0,0,0,0,-2.7693,-2.769,-2.7669,-2.7669,-2.7669,-2.7651,-2.7646,-2.7622,-2.7651,-2.7658,-2.7654,-2.7655,-2.763,-2.7627,-2.762,-2.7583,-2.7582,-2.7611,-2.7609,-2.7608,-2.7608,0,0,0,0,0,0,0,-2.7695,-2.7691,-2.7657,-2.7668,-2.7668,-2.7668,-2.7666,-2.7641,-2.7638,-2.7657,-2.7658,-2.7655,-2.763,-2.7622,-2.7619,-2.7581,-2.7611,-2.7609,-2.7607,-2.7606,-2.751,-2.7509,0,0,0,0,0,0,-2.7697,-2.7692,-2.7657,-2.7656,-2.7684,-2.7666,-2.7664,-2.7656,-2.7639,-2.7637,-2.7655,-2.7656,-2.7625,-2.7622,-2.7618,-2.7574,-2.7608,-2.7606,-2.7605,-2.7511,-2.7509,-2.7508,0,0,0,0,0,0,-2.7698,-2.7694,-2.7659,-2.7674,-2.767,-2.7664,-2.7655,-2.7655,-2.7647,-2.7637,-2.7635,-2.7648,-2.7626,-2.7621,-2.7592,-2.7574,-2.7605,-2.7603,-2.7512,-2.7511,-2.7509,-2.749,0,0,0,0,0,0,-2.77,-2.7695,-2.7685,-2.7674,-2.7669,-2.7636,-2.7654,-2.7653,-2.7644,-2.7646,-2.763,-2.7628,-2.7626,-2.7595,-2.759,-2.7571,-2.7602,-2.7514,-2.7512,-2.7509,-2.7492,-2.7488,-2.7484,0,0,0,0,0,-2.7701,-2.768,-2.7684,-2.768,-2.7657,-2.7636,-2.7632,-2.7632,-2.7643,-2.7631,-2.7623,-2.7629,-2.7577,-2.7592,-2.7586,-2.7567,-2.7515,-2.7512,-2.751,-2.7494,-2.7488,-2.7484,0,0,0,0,0,0,-2.7688,-2.7679,-2.7684,-2.7659,-2.7648,-2.7637,-2.7623,-2.7627,-2.7611,-2.7613,-2.7611,-2.7607,-2.7576,-2.7569,-2.7586,-2.753,-2.7547,-2.7543,-2.7537,-2.7532,-2.7528,-2.7529,-2.76,0,0,0,0,0,-2.7682,-2.7668,-2.766,-2.7639,-2.7633,-2.7629,-2.7619,-2.762,-2.7608,-2.7602,-2.7593,-2.7578,-2.7558,-2.7545,-2.7526,-2.7491,-2.7484,-2.7474,-2.747,-2.7466,-2.7462,-2.7437,-2.743,-2.7499,-2.7499,-2.7499,0,0,-2.767,-2.7663,-2.7654,-2.7636,-2.7628,-2.7609,-2.7625,-2.7606,-2.7591,-2.7599,-2.7571,-2.7562,-2.7545,-2.7512,-2.7497,-2.7504,-2.7441,-2.7463,-2.746,-2.7458,-2.7433,-2.7426,-2.7421,-2.7497,-2.7497,-2.7498,0,0,-2.7638,-2.7633,-2.7613,-2.7604,-2.7591,-2.7588,-2.7582,-2.757,-2.7566,-2.7538,-2.7541,-2.7521,-2.7488,-2.7474,-2.7463,-2.742,-2.7422,-2.7413,-2.7391,-2.7366,-2.7361,-2.7356,-2.7336,-2.7329,-2.7409,-2.7409,-2.7409,0,-2.7623,-2.7599,-2.7602,-2.7581,-2.7571,-2.7578,-2.7554,-2.7544,-2.7525,-2.7516,-2.7525,-2.748,-2.7469,-2.743,-2.7419,-2.7411,-2.74,-2.7415,-2.7362,-2.7357,-2.7352,-2.7333,-2.7326,-2.7408,-2.7408,-2.7408,-2.7409,0,-2.758,-2.7562,-2.7547,-2.7529,-2.7517,-2.7495,-2.749,-2.7477,-2.7477,-2.7471,-2.7438,-2.7425,-2.7401,-2.7392,-2.7393,-2.735,-2.7355,-2.7363,-2.7379,-2.7344,-2.7326,-2.7319,-2.7406,-2.7407,-2.7407,-2.7407,0,0,-2.754,-2.7522,-2.7516,-2.7506,-2.749,-2.7475,-2.745,-2.7429,-2.7415,-2.74,-2.7376,-2.7345,-2.7351,-2.7338,-2.7336,-2.7315,-2.7274,-2.7324,-2.7324,-2.7312,-2.7221,-2.7213,-2.7205,-2.7276,-2.7275,-2.7274,-2.7221,0,-2.7504,-2.7466,-2.7465,-2.7428,-2.7408,-2.7412,-2.739,-2.7376,-2.7368,-2.7347,-2.7337,-2.7314,-2.7326,-2.7317,-2.7297,-2.7284,-2.7256,-2.7288,-2.7249,-2.7248,-2.7251,-2.7196,-2.7189,-2.7139,-2.7214,-2.7213,-2.7212,0,-2.7459,-2.7443,-2.7404,-2.7386,-2.7378,-2.7359,-2.7336,-2.7318,-2.7299,-2.7294,-2.7277,-2.7276,-2.7246,-2.7264,-2.7218,-2.724,-2.7223,-2.7214,-2.7212,-2.7206,-2.7227,-2.7185,-2.7124,-2.7115,-2.7202,-2.7202,-2.7203,0,-2.7429,-2.7398,-2.7369,-2.7361,-2.7341,-2.7326,-2.7317,-2.7299,-2.7284,-2.7262,-2.7251,-2.7226,-2.7211,-2.7188,-2.7178,-2.7193,-2.7131,-2.715,-2.7122,-2.7122,-2.7108,-2.7108,-2.704,-2.7102,-2.7102,-2.7102,-2.7102,0,-2.7388,-2.7363,-2.7355,-2.7338,-2.7307,-2.7304,-2.7273,-2.7264,-2.7247,-2.7223,-2.7224,-2.7201,-2.7191,-2.7164,-2.7156,-2.7116,-2.711,-2.7101,-2.7099,-2.71,-2.71,-2.7088,-2.7089,-2.71,-2.7101,-2.7101,-2.7101,0,-2.735,-2.7345,-2.7313,-2.7296,-2.7291,-2.7269,-2.7252,-2.7232,-2.7223,-2.7193,-2.7185,-2.717,-2.7139,-2.7127,-2.7088,-2.7082,-2.7034,-2.7036,-2.7041,-2.704,-2.7011,-2.7012,-2.693,-2.6916,-2.699,-2.699,-2.6989,0,-2.7323,-2.7304,-2.7285,-2.727,-2.726,-2.7237,-2.7222,-2.7216,-2.7198,-2.7172,-2.7153,-2.7123,-2.7097,-2.7045,-2.7028,-2.6996,-2.6995,-2.6967,-2.699,-2.6989,-2.6989,-2.6989,-2.6984,-2.6963,-2.6962,-2.6962,-2.6961,0,-2.7275,-2.7272,-2.7252,-2.7229,-2.721,-2.7191,-2.7173,-2.7159,-2.7149,-2.7129,-2.7098,-2.7078,-2.7037,-2.7004,-2.697,-2.6955,-2.6953,-2.6954,-2.6945,-2.6945,-2.6947,-2.6941,-2.7026,-2.6956,-2.6956,-2.6957,-2.6957,-2.6957,-2.7239,-2.7221,-2.7203,-2.7178,-2.7164,-2.7145,-2.7124,-2.7112,-2.7087,-2.7055,-2.7052,-2.7016,-2.699,-2.6945,-2.6928,-2.6896,-2.6902,-2.6891,-2.6887,-2.6884,-2.6879,-2.6954,-2.689,-2.689,-2.689,-2.689,-2.689,0,-2.7188,-2.7176,-2.7154,-2.7127,-2.7106,-2.711,-2.7088,-2.7068,-2.7038,-2.7016,-2.6991,-2.6951,-2.6917,-2.6895,-2.686,-2.6838,-2.6835,-2.6828,-2.6828,-2.6823,-2.6878,-2.6887,-2.683,-2.683,-2.683,-2.683,-2.683,-2.683,-2.7159,-2.7126,-2.712,-2.7077,-2.7064,-2.7032,-2.7018,-2.6998,-2.698,-2.6936,-2.6909,-2.6896,-2.6871,-2.6833,-2.6799,-2.6793,-2.6778,-2.6769,-2.6763,-2.6814,-2.682,-2.6826,-2.6835,-2.6767,-2.6767,-2.671,-2.6709,-2.6709]}]]